Litchfield, MN

6:50 PM CDT on April 26, 2018 (GMT -0500)
Litchfield Municipal

Weather History for KLJF - January, 2012

Change the Weather History Date:

Friday, January 20, 2012

  Actual Average Record
Temperature  
Mean Temperature 3 °F -  
Max Temperature 8 °F 23 °F 44 °F (1964)
Min Temperature -2 °F 0 °F -34 °F (1985)
Degree Days  
Heating Degree Days 62    
Moisture  
Dew Point -3 °F    
Average Humidity 74    
Maximum Humidity 92    
Minimum Humidity 51    
Precipitation  
Precipitation 0.01 in - - ()
Sea Level Pressure  
Sea Level Pressure 30.11 in    
Wind  
Wind Speed 3 mph (ESE)    
Max Wind Speed 8 mph    
Max Gust Speed -    
Visibility 7 miles    
Events Snow    
Averages and records for this station are not official NWS values.
T = Trace of Precipitation, MM = Missing Value Source: NWS Daily Summary

Daily Weather History Graph

Daily Weather History Graph

Search for Another Location

Airport or City:

Astronomy

Jan. 20, 2012 Rise Set
Actual Time 7:50 AM CST 5:08 PM CST
Civil Twilight 7:17 AM CST 5:40 PM CST
Nautical Twilight 6:41 AM CST 6:16 PM CST
Astronomical Twilight 6:06 AM CST 6:51 PM CST
Moon 5:31 AM CST (1/20) 2:37 PM CST (1/20)
Length of Visible Light 10h 23m
Length of Day
9h 18m
Waning Crescent, 8% of the Moon is Illuminated
Jan 20
Waning Crescent
Jan 23
New
Jan 30
First Quarter
Feb 7
Full
Feb 14
Last Quarter

Hourly Weather History & Observations

Time (CST) Temp. Windchill Dew Point Humidity Pressure Visibility Wind Dir Wind Speed Gust Speed Precip Events Conditions
12:13 AM -2.2 °F - -13.0 °F 60% 30.10 in 10.0 mi Calm Calm - N/A   Mostly Cloudy
12:30 AM -0.4 °F - -14.8 °F 51% 30.10 in 10.0 mi Calm Calm - N/A   Mostly Cloudy
12:48 AM -0.4 °F - -13.0 °F 55% 30.10 in 10.0 mi Calm Calm - N/A   Mostly Cloudy
1:13 AM -0.4 °F - -13.0 °F 55% 30.10 in 10.0 mi Calm Calm - N/A   Scattered Clouds
1:33 AM -0.4 °F - -13.0 °F 55% 30.10 in 10.0 mi Calm Calm - N/A   Scattered Clouds
1:53 AM -0.4 °F -8.3 °F -13.0 °F 55% 30.09 in 10.0 mi North 3.5 mph - N/A   Scattered Clouds
2:13 AM 1.4 °F - -13.0 °F 51% 30.09 in 10.0 mi Calm Calm - N/A   Clear
2:53 AM 1.4 °F - -13.0 °F 51% 30.08 in 10.0 mi Calm Calm - N/A   Mostly Cloudy
3:13 AM 1.4 °F -6.2 °F -13.0 °F 51% 30.07 in 10.0 mi SSE 3.5 mph - N/A   Overcast
3:33 AM 1.4 °F -8.3 °F -11.2 °F 56% 30.06 in 10.0 mi SSE 4.6 mph - N/A   Overcast
3:53 AM 1.4 °F -8.3 °F -11.2 °F 56% 30.07 in 10.0 mi SE 4.6 mph - N/A   Overcast
4:13 AM 1.4 °F -8.3 °F -11.2 °F 56% 30.07 in 10.0 mi SE 4.6 mph - N/A   Overcast
4:32 AM 1.4 °F -8.3 °F -9.4 °F 61% 30.07 in 10.0 mi ESE 4.6 mph - N/A   Overcast
4:53 AM 1.4 °F -6.2 °F -7.6 °F 66% 30.07 in 4.0 mi SE 3.5 mph - N/A Snow Light Snow
5:13 AM 1.4 °F -8.3 °F -5.8 °F 72% 30.07 in 7.0 mi SE 4.6 mph - N/A Snow Light Snow
5:33 AM 1.4 °F -6.2 °F -5.8 °F 72% 30.08 in 3.0 mi SE 3.5 mph - N/A Snow Light Snow
5:52 AM 1.4 °F -8.3 °F -4.0 °F 78% 30.07 in 2.0 mi SE 4.6 mph - N/A Snow Light Snow
6:13 AM 1.4 °F -6.2 °F -2.2 °F 85% 30.08 in 1.5 mi SE 3.5 mph - N/A Snow Light Snow
6:32 AM 1.4 °F -6.2 °F -0.4 °F 92% 30.08 in 2.0 mi SE 3.5 mph - N/A Snow Light Snow
6:53 AM 1.4 °F -6.2 °F -0.4 °F 92% 30.09 in 2.5 mi SE 3.5 mph - N/A Snow Light Snow
7:13 AM 1.4 °F -6.2 °F -0.4 °F 92% 30.08 in 3.0 mi ESE 3.5 mph - N/A Snow Light Snow
7:33 AM 1.4 °F -9.9 °F -0.4 °F 92% 30.07 in 2.5 mi ESE 5.8 mph - N/A Snow Light Snow
7:53 AM 3.2 °F -6.2 °F -0.4 °F 85% 30.08 in 2.0 mi ESE 4.6 mph - N/A Snow Light Snow
8:13 AM 3.2 °F -7.8 °F -0.4 °F 85% 30.09 in 1.5 mi ESE 5.8 mph - N/A Snow Light Snow
8:33 AM 3.2 °F -10.3 °F -0.4 °F 85% 30.08 in 1.8 mi East 8.1 mph - N/A Snow Light Snow
8:53 AM 3.2 °F -7.8 °F -0.4 °F 85% 30.08 in 2.0 mi East 5.8 mph - N/A Snow Light Snow
9:13 AM 3.2 °F -9.1 °F -0.4 °F 85% 30.09 in 2.0 mi East 6.9 mph - N/A Snow Light Snow
9:33 AM 3.2 °F -9.1 °F -0.4 °F 85% 30.10 in 2.5 mi ESE 6.9 mph - N/A Snow Light Snow
9:53 AM 3.2 °F -9.1 °F -0.4 °F 85% 30.10 in 3.0 mi East 6.9 mph - N/A   Overcast
10:13 AM 3.2 °F -10.3 °F -0.4 °F 85% 30.11 in 3.0 mi ESE 8.1 mph - N/A Snow Light Snow
10:33 AM 5.0 °F -5.6 °F -0.4 °F 78% 30.13 in 5.0 mi East 5.8 mph - N/A Snow Light Snow
10:53 AM 5.0 °F -5.6 °F -0.4 °F 78% 30.14 in 10.0 mi ESE 5.8 mph - N/A   Overcast
11:13 AM 5.0 °F -5.6 °F -0.4 °F 78% 30.14 in 7.0 mi SE 5.8 mph - N/A Snow Light Snow
11:33 AM 6.8 °F -3.5 °F 1.4 °F 79% 30.13 in 7.0 mi SE 5.8 mph - N/A Snow Light Snow
11:53 AM 6.8 °F -0.1 °F 1.4 °F 79% 30.13 in 1.8 mi East 3.5 mph - N/A Snow Light Snow
12:13 PM 6.8 °F -3.5 °F 1.4 °F 79% 30.13 in 4.0 mi ESE 5.8 mph - N/A Snow Light Snow
12:33 PM 6.8 °F - 1.4 °F 79% 30.12 in 10.0 mi Calm Calm - N/A   Overcast
12:53 PM 8.6 °F 2.0 °F 1.4 °F 73% 30.12 in 10.0 mi East 3.5 mph - N/A   Overcast
1:13 PM 8.6 °F - 1.4 °F 73% 30.12 in 10.0 mi Calm Calm - N/A   Overcast
1:34 PM 6.8 °F -0.1 °F 1.4 °F 79% 30.12 in 10.0 mi North 3.5 mph - N/A   Overcast
1:53 PM 8.6 °F 2.0 °F 1.4 °F 73% 30.12 in 7.0 mi NE 3.5 mph - N/A   Overcast
2:13 PM 8.6 °F - 3.2 °F 79% 30.11 in 10.0 mi Calm Calm - N/A   Overcast
2:32 PM 8.6 °F - 1.4 °F 73% 30.11 in 10.0 mi Calm Calm - N/A   Overcast
2:45 PM 8.6 °F - 1.4 °F 73% 30.12 in 10.0 mi Calm Calm - 0.01 in   Overcast
2:53 PM 8.6 °F - 3.2 °F 79% 30.12 in 10.0 mi Calm Calm - N/A   Overcast
3:13 PM 8.6 °F 2.0 °F 3.2 °F 79% 30.13 in 10.0 mi NNE 3.5 mph - N/A   Overcast
3:53 PM 8.6 °F 2.0 °F 3.2 °F 79% 30.14 in 10.0 mi NNE 3.5 mph - N/A   Overcast
4:13 PM 8.6 °F 0.1 °F 3.2 °F 79% 30.14 in 10.0 mi North 4.6 mph - N/A Snow Light Snow
4:32 PM 8.6 °F 0.1 °F 3.2 °F 79% 30.15 in 10.0 mi North 4.6 mph - N/A   Overcast
4:53 PM 6.8 °F -2.0 °F 1.4 °F 79% 30.15 in 10.0 mi North 4.6 mph - N/A   Overcast
5:13 PM 6.8 °F -0.1 °F 3.2 °F 85% 30.16 in 10.0 mi NNW 3.5 mph - N/A   Overcast
5:34 PM 8.6 °F - 3.2 °F 79% 30.16 in 10.0 mi Calm Calm - N/A   Overcast
5:53 PM 8.6 °F - 3.2 °F 79% 30.17 in 10.0 mi Calm Calm - N/A   Overcast
6:13 PM 6.8 °F - 3.2 °F 85% 30.17 in 10.0 mi Calm Calm - N/A   Overcast
6:32 PM 6.8 °F - 3.2 °F 85% 30.18 in 10.0 mi Calm Calm - N/A   Overcast
6:53 PM 6.8 °F - 3.2 °F 85% 30.17 in 10.0 mi Calm Calm - N/A   Overcast
7:13 PM 6.8 °F - 3.2 °F 85% 30.17 in 10.0 mi Calm Calm - N/A   Overcast
7:34 PM 6.8 °F - 3.2 °F 85% 30.18 in 10.0 mi Calm Calm - N/A   Mostly Cloudy
7:53 PM 5.0 °F - 1.4 °F 85% 30.19 in 10.0 mi Calm Calm - N/A   Scattered Clouds
8:13 PM 3.2 °F - 1.4 °F 92% 30.20 in 10.0 mi Calm Calm - N/A   Clear
8:33 PM 3.2 °F - 1.4 °F 92% 30.20 in 10.0 mi Calm Calm - N/A   Clear
8:53 PM 1.4 °F - -0.4 °F 92% 30.20 in 10.0 mi Calm Calm - N/A   Clear
9:13 PM -0.4 °F - -2.2 °F 92% 30.20 in 10.0 mi Calm Calm - N/A   Clear
9:33 PM 1.4 °F - -0.4 °F 92% 30.20 in 10.0 mi Calm Calm - N/A   Clear
9:53 PM -2.2 °F -10.4 °F -4.0 °F 92% 30.20 in 10.0 mi SW 3.5 mph - N/A   Clear
10:13 PM 1.4 °F - -0.4 °F 92% 30.19 in 10.0 mi Calm Calm - N/A   Clear
10:33 PM -2.2 °F - -5.8 °F 85% 30.19 in 10.0 mi Calm Calm - N/A   Clear
10:53 PM -2.2 °F - -5.8 °F 85% 30.20 in 10.0 mi Calm Calm - N/A   Clear
11:13 PM -2.2 °F - -5.8 °F 85% 30.20 in 10.0 mi Calm Calm - N/A   Clear
11:33 PM -2.2 °F - -5.8 °F 85% 30.21 in 10.0 mi Calm Calm - N/A   Clear
11:53 PM -4.0 °F - -5.8 °F 92% 30.21 in 10.0 mi Calm Calm - N/A   Clear